{"data":{"norad_id":67280,"epoch":"2026-05-25T03:20:28.315104Z","epoch_age_seconds":73055,"freshness":"FRESH","line1":"1 67280U 25313AJ  26145.13921661  .00004808  00000+0  21194-3 0  9993","line2":"2 67280  97.4002 220.2468 0014868  84.2483 276.0448 15.22178376 22442","mean_motion":15.22178376,"eccentricity":0.0014868,"inclination_deg":97.4002,"raan_deg":220.2468,"arg_perigee_deg":84.2483,"mean_anomaly_deg":276.0448,"bstar":0.00021194,"rev_number":2244,"period_min":94.60126504911,"perigee_km":489.04598260854,"apogee_km":509.49664396893,"semimajor_km":6877.4083132887,"source":"CELESTRAK","updated_at":"2026-05-25T13:38:06.853074Z"}}